Location: Kumla
(59.1265°N, 15.1401°E)
Time: 05:56:05
(UTC+01:00)

Transit 4A - Pass Details

Date: 05 December 2023
Orbit: 870 x 973 km, 66.8° (Epoch: 02 March)

Event Time Altitude Azimuth Distance (km) Brightness Sun altitude
Exits shadow 04:01:21 34° 147° (SSE) 1,472 9.0 -32.8°
Drops below altitude 10° 04:04:34 10° 142° (SE) 2,586 10.5 -32.4°
Sets 04:07:01 0° 141° (SE) 3,509 11.3 -32.1°
